TimeCDT,TemperatureF,Dew PointF,Humidity,Sea Level PressureIn,VisibilityMPH,Wind Direction,Wind SpeedMPH,Gust SpeedMPH,PrecipitationIn,Events,Conditions,WindDirDegrees,DateUTC
12:15 AM,33.8,32.0,93,30.27,10.0,Calm,Calm,-,N/A,,Clear,0,2012-10-29 05:15:00
12:35 AM,33.8,32.0,93,30.28,9.0,Calm,Calm,-,N/A,,Clear,0,2012-10-29 05:35:00
12:55 AM,33.8,32.0,93,30.28,8.0,Calm,Calm,-,N/A,,Clear,0,2012-10-29 05:55:00
1:15 AM,33.8,32.0,93,30.28,7.0,Calm,Calm,-,N/A,,Mostly Cloudy,0,2012-10-29 06:15:00
1:35 AM,32.0,32.0,100,30.28,3.0,Calm,Calm,-,N/A,,Scattered Clouds,0,2012-10-29 06:35:00
1:55 AM,32.0,32.0,100,30.28,7.0,Calm,Calm,-,N/A,,Clear,0,2012-10-29 06:55:00
2:15 AM,32.0,32.0,100,30.29,9.0,Calm,Calm,-,N/A,,Clear,0,2012-10-29 07:15:00
2:35 AM,32.0,32.0,100,30.30,8.0,Calm,Calm,-,N/A,,Clear,0,2012-10-29 07:35:00
2:55 AM,32.0,32.0,100,30.30,8.0,Calm,Calm,-,N/A,,Clear,0,2012-10-29 07:55:00
3:15 AM,32.0,32.0,100,30.30,8.0,Calm,Calm,-,N/A,,Clear,0,2012-10-29 08:15:00
3:35 AM,32.0,32.0,100,30.30,7.0,Calm,Calm,-,N/A,,Clear,0,2012-10-29 08:35:00
3:55 AM,32.0,32.0,100,30.29,7.0,Calm,Calm,-,N/A,,Clear,0,2012-10-29 08:55:00
4:35 AM,32.0,32.0,100,30.29,8.0,Calm,Calm,-,N/A,,Clear,0,2012-10-29 09:35:00
4:55 AM,32.0,32.0,100,30.29,8.0,Calm,Calm,-,N/A,,Clear,0,2012-10-29 09:55:00
5:15 AM,32.0,30.2,93,30.30,9.0,Calm,Calm,-,N/A,,Clear,0,2012-10-29 10:15:00
5:35 AM,32.0,30.2,93,30.30,9.0,Calm,Calm,-,N/A,,Clear,0,2012-10-29 10:35:00
5:55 AM,32.0,30.2,93,30.30,9.0,Calm,Calm,-,N/A,,Clear,0,2012-10-29 10:55:00
6:15 AM,32.0,30.2,93,30.30,9.0,Calm,Calm,-,N/A,,Clear,0,2012-10-29 11:15:00
6:35 AM,32.0,30.2,93,30.30,10.0,Calm,Calm,-,N/A,,Clear,0,2012-10-29 11:35:00
6:55 AM,32.0,30.2,93,30.30,8.0,Calm,Calm,-,N/A,,Clear,0,2012-10-29 11:55:00
7:15 AM,32.0,30.2,93,30.31,9.0,Calm,Calm,-,N/A,,Clear,0,2012-10-29 12:15:00
7:35 AM,32.0,30.2,93,30.31,9.0,Calm,Calm,-,N/A,,Clear,0,2012-10-29 12:35:00
7:55 AM,32.0,30.2,93,30.32,8.0,Calm,Calm,-,N/A,,Clear,0,2012-10-29 12:55:00
8:15 AM,32.0,32.0,100,30.31,7.0,Calm,Calm,-,N/A,,Clear,0,2012-10-29 13:15:00
8:35 AM,32.0,32.0,100,30.32,9.0,Calm,Calm,-,N/A,,Clear,0,2012-10-29 13:35:00
8:55 AM,33.8,32.0,93,30.34,8.0,Calm,Calm,-,N/A,,Clear,0,2012-10-29 13:55:00
9:15 AM,37.4,33.8,87,30.34,10.0,Calm,Calm,-,N/A,,Clear,0,2012-10-29 14:15:00
9:35 AM,41.0,35.6,81,30.35,10.0,Calm,Calm,-,N/A,,Clear,0,2012-10-29 14:35:00
9:55 AM,46.4,32.0,57,30.34,10.0,NNE,3.5,-,N/A,,Clear,20,2012-10-29 14:55:00
10:15 AM,48.2,32.0,54,30.34,10.0,Calm,Calm,-,N/A,,Clear,0,2012-10-29 15:15:00
10:35 AM,50.0,32.0,50,30.34,10.0,Calm,Calm,-,N/A,,Clear,0,2012-10-29 15:35:00
10:55 AM,50.0,32.0,50,30.34,10.0,NW,8.1,-,N/A,,Clear,310,2012-10-29 15:55:00
11:15 AM,51.8,32.0,47,30.34,10.0,NNW,8.1,-,N/A,,Clear,330,2012-10-29 16:15:00
11:35 AM,51.8,32.0,47,30.34,10.0,North,4.6,-,N/A,,Clear,350,2012-10-29 16:35:00
11:55 AM,51.8,32.0,47,30.33,10.0,Calm,Calm,-,N/A,,Clear,0,2012-10-29 16:55:00
12:15 PM,53.6,30.2,41,30.32,10.0,NNE,4.6,-,N/A,,Clear,20,2012-10-29 17:15:00
12:55 PM,55.4,30.2,38,30.29,10.0,Calm,Calm,-,N/A,,Clear,0,2012-10-29 17:55:00
1:15 PM,55.4,28.4,36,30.28,10.0,ENE,4.6,-,N/A,,Clear,60,2012-10-29 18:15:00
1:55 PM,57.2,28.4,33,30.25,10.0,NE,4.6,-,N/A,,Scattered Clouds,40,2012-10-29 18:55:00
2:15 PM,57.2,28.4,33,30.25,9.0,Calm,Calm,-,N/A,,Mostly Cloudy,0,2012-10-29 19:15:00
2:35 PM,57.2,28.4,33,30.23,10.0,Calm,Calm,-,N/A,,Scattered Clouds,0,2012-10-29 19:35:00
2:55 PM,57.2,28.4,33,30.22,10.0,ENE,3.5,-,N/A,,Mostly Cloudy,70,2012-10-29 19:55:00
3:15 PM,57.2,26.6,31,30.22,10.0,Calm,Calm,-,N/A,,Mostly Cloudy,0,2012-10-29 20:15:00
3:35 PM,57.2,28.4,33,30.21,10.0,NNE,3.5,-,N/A,,Scattered Clouds,30,2012-10-29 20:35:00
3:55 PM,59.0,28.4,31,30.19,10.0,Calm,Calm,-,N/A,,Partly Cloudy,0,2012-10-29 20:55:00
4:15 PM,59.0,28.4,31,30.19,10.0,West,6.9,-,N/A,,Scattered Clouds,260,2012-10-29 21:15:00
4:35 PM,59.0,28.4,31,30.19,10.0,West,4.6,-,N/A,,Mostly Cloudy,280,2012-10-29 21:35:00
5:15 PM,57.2,26.6,31,30.18,10.0,Calm,Calm,-,N/A,,Clear,0,2012-10-29 22:15:00
5:35 PM,57.2,24.8,29,30.18,10.0,NNE,3.5,-,N/A,,Clear,20,2012-10-29 22:35:00
5:55 PM,55.4,26.6,33,30.17,10.0,Calm,Calm,-,N/A,,Clear,0,2012-10-29 22:55:00
6:15 PM,53.6,32.0,44,30.17,10.0,Calm,Calm,-,N/A,,Clear,0,2012-10-29 23:15:00
6:35 PM,48.2,33.8,58,30.16,10.0,Calm,Calm,-,N/A,,Clear,0,2012-10-29 23:35:00
6:55 PM,46.4,35.6,66,30.17,10.0,Calm,Calm,-,N/A,,Partly Cloudy,0,2012-10-29 23:55:00
7:15 PM,44.6,35.6,71,30.17,10.0,Calm,Calm,-,N/A,,Partly Cloudy,0,2012-10-30 00:15:00
7:35 PM,44.6,35.6,71,30.17,10.0,Calm,Calm,-,N/A,,Clear,0,2012-10-30 00:35:00
7:55 PM,44.6,33.8,66,30.17,10.0,Calm,Calm,-,N/A,,Partly Cloudy,0,2012-10-30 00:55:00
10:35 PM,37.4,33.8,87,30.17,10.0,Calm,Calm,-,N/A,,Clear,0,2012-10-30 03:35:00
10:55 PM,37.4,33.8,87,30.16,10.0,Calm,Calm,-,N/A,,Clear,0,2012-10-30 03:55:00
11:15 PM,35.6,33.8,93,30.15,10.0,Calm,Calm,-,N/A,,Clear,0,2012-10-30 04:15:00
11:35 PM,35.6,33.8,93,30.15,10.0,Calm,Calm,-,N/A,,Clear,0,2012-10-30 04:35:00
11:55 PM,35.6,33.8,93,30.15,10.0,Calm,Calm,-,N/A,,Clear,0,2012-10-30 04:55:00